Location: Keppel Henge
(44.7900°N, 80.9447°W)
Time: 16:29:15
(UTC-04:00)

Vanguard 3 - Visible Passes

Search period start: 18 October 2017 00:00
Search period end: 28 October 2017 00:00
Orbit: 510 x 3263 km, 33.3° (Epoch: 18 October)

Date Brightness Start Highest point End Pass type
(mag) Time Alt. Az. Time Alt. Az. Time Alt. Az.
18 Oct 10.6 04:05:33 14° S 04:09:33 17° SSE 04:15:38 10° ESE visible
18 Oct 9.7 06:12:33 10° SW 06:22:23 29° S 06:28:41 10° ESE visible
19 Oct 11.0 02:56:20 11° SE 02:56:20 11° SE 02:58:35 10° SE visible
19 Oct 10.1 05:00:56 17° SSW 05:08:09 26° SSE 05:15:23 10° ESE visible
19 Oct 9.3 07:11:02 10° WSW 07:20:40 35° S 07:26:33 10° ESE visible
20 Oct 10.5 03:51:38 21° SSE 03:53:35 21° SSE 04:01:20 10° ESE visible
20 Oct 9.6 05:56:14 12° SW 06:06:40 35° S 06:13:45 10° ESE visible
21 Oct 10.9 02:42:14 14° SE 02:42:14 14° SE 02:45:47 10° ESE visible
21 Oct 10.0 04:46:50 24° SSW 04:52:15 31° SSE 05:00:31 10° ESE visible
21 Oct 9.3 06:54:04 10° WSW 07:05:01 39° S 07:11:32 10° ESE visible
22 Oct 10.4 03:37:23 26° SSE 03:37:29 26° SSE 03:46:36 10° ESE visible
22 Oct 9.6 05:41:59 19° SW 05:50:50 39° S 05:58:42 10° ESE visible
23 Oct 10.8 02:27:52 16° ESE 02:27:52 16° ESE 02:31:32 10° ESE visible
23 Oct 9.9 04:32:28 32° S 04:36:13 36° SSE 04:45:27 10° ESE visible
23 Oct 9.3 06:37:03 10° WSW 06:49:15 42° S 06:56:26 10° ESE visible
24 Oct 10.3 03:22:53 30° SE 03:22:53 30° SE 03:31:35 10° E visible
24 Oct 9.6 05:27:28 26° SW 05:34:54 44° S 05:43:34 10° ESE visible
25 Oct 10.9 02:13:16 17° ESE 02:13:16 17° ESE 02:16:43 10° ESE visible
25 Oct 9.9 04:17:51 39° S 04:20:03 41° SSE 04:30:15 10° E visible
25 Oct 9.4 06:22:26 16° WSW 06:33:22 45° S 06:41:15 10° ESE visible
26 Oct 10.3 03:08:11 33° SE 03:08:11 33° SE 03:16:20 10° E visible
26 Oct 9.6 05:12:47 34° SW 05:18:50 47° S 05:28:20 10° ESE visible
26 Oct 9.4 07:19:48 10° W 07:31:32 39° SSW 07:38:32 10° SE visible
27 Oct 10.9 01:58:30 17° ESE 01:58:30 17° ESE 02:01:33 10° E visible
27 Oct 9.8 04:03:04 45° S 04:03:46 45° SSE 04:14:56 10° E visible
27 Oct 9.4 06:07:38 21° WSW 06:17:24 47° S 06:26:00 10° ESE visible
